This is the latest recevied weather packets stored in our database for station/object KD4UFD. If no packets are shown the sender has not sent any weather packets the latest 10 day(s).
| Time | Temp. | Humidity | Pressure | Rain* | Wind** | Luminosity | Snow |
|---|---|---|---|---|---|---|---|
| 1777489138 | 23.33° C | 80% | 1011.3 hPa | 0 mm | - | 465 W/m² | - |
| 1777488835 | 22.78° C | 81% | 1011 hPa | 0 mm | - | 631 W/m² | - |
| 1777488532 | 22.78° C | 82% | 1011.2 hPa | 0 mm | - | 365 W/m² | - |
| 1777488230 | 22.78° C | 83% | 1011.1 hPa | 0 mm | - | 876 W/m² | - |
| 1777487928 | 22.22° C | 82% | 1011.2 hPa | 0 mm | - | 459 W/m² | - |
| 1777487625 | 22.78° C | 81% | 1011.2 hPa | 0 mm | - | 290 W/m² | - |
| 1777487322 | 22.78° C | 82% | 1011.3 hPa | 0 mm | - | 482 W/m² | - |
| 1777487020 | 22.22° C | 84% | 1011.2 hPa | 0 mm | - | 713 W/m² | - |
| 1777486715 | 21.67° C | 85% | 1011.3 hPa | 0 mm | - | 480 W/m² | - |
| 1777486414 | 21.11° C | 85% | 1011.3 hPa | 0 mm | - | 305 W/m² | - |
| 1777486111 | 21.67° C | 84% | 1011.1 hPa | 0 mm | - | 300 W/m² | - |
| 1777485807 | 21.11° C | 84% | 1011.3 hPa | 0 mm | - | 322 W/m² | - |
| 1777485503 | 21.11° C | 84% | 1011.5 hPa | 0 mm | - | 203 W/m² | - |
| 1777485199 | 21.67° C | 84% | 1011.3 hPa | 0 mm | - | 179 W/m² | - |
| 1777484896 | 21.67° C | 83% | 1011.4 hPa | 0 mm | - | 198 W/m² | - |
| 1777484593 | 21.67° C | 84% | 1011.3 hPa | 0 mm | - | 483 W/m² | - |
| 1777484289 | 21.67° C | 84% | 1011.4 hPa | 0 mm | - | 214 W/m² | - |
| 1777483985 | 21.67° C | 83% | 1011.6 hPa | 0 mm | - | 277 W/m² | - |
| 1777483682 | 21.67° C | 84% | 1011.5 hPa | 0 mm | - | 537 W/m² | - |
| 1777483377 | 21.11° C | 85% | 1011.6 hPa | 0 mm | - | 563 W/m² | - |
| 1777483073 | 21.11° C | 85% | 1011.5 hPa | 0 mm | - | 315 W/m² | - |
| 1777482770 | 21.11° C | 84% | 1011.6 hPa | 0 mm | - | 436 W/m² | - |
| 1777482466 | 20.56° C | 85% | 1011.7 hPa | 0 mm | - | 272 W/m² | - |
| 1777482164 | 20.56° C | 86% | 1011.7 hPa | 0 mm | - | 246 W/m² | - |
| 1777481862 | 20° C | 86% | 1011.9 hPa | 0 mm | - | 165 W/m² | - |
* Rain latest hour (hover to see other rain measurements)
** Current wind speed in m/s (hover to see current wind gust speed)